Meteo Giornale » Osservazioni meteo Canada » Bella Bella
ore: 12:18 - Osservazioni Meteo Bella Bella
Lat. 52° 11' N Lon. 128° 9' W Alt. 43 metri s.l.m.
15 °C
Coperto
Temp. 24 Ore
14 °C
15 °C
Sud
9.3 Km/h
Dew point 14 °C
Umidità 93 %
Visibilità 14 Km
Il sole sorge alle ore 06:43
Il sole tramonta alle ore 20:22
| Data e Ora | Cielo e Fenomeni | T °C | DP °C | Um. % | Pres. hPa | Vis. km | Vento km/h | |
|---|---|---|---|---|---|---|---|---|
| Oggi h: 12:18 | Coperto | 15 | 14 | 93 | 1012 | 14 | S 9.3 | |
| Oggi h: 12:08 | Pioggia | 15 | 14 | 93 | 1012 | 11 | S 11.1 | |
| Oggi h: 12:00 | Pioggia Foschia | 15 | 14 | 93 | 1012 | 6 | S 14.8 | |
| Oggi h: 11:59 | Pioggia Foschia | 15 | 14 | 93 | 1012 | 6 | S 14.8 | |
| Oggi h: 11:00 | Pioggia | 15 | 14 | 93 | 1012 | 14 | S 11.1 | |
| Oggi h: 10:32 | Pioggia | 15 | 14 | 93 | 1012 | 13 | S 11.1 | |
| Oggi h: 10:00 | Pioggia | 15 | 14 | 93 | 1012 | 14 | S 14.8 | |
| Oggi h: 09:47 | Pioggia | 15 | 14 | 93 | 1012 | 14 | S 13 | |
| Oggi h: 09:00 | Pioggia | 14 | 14 | 100 | 1012 | 14 | S 11.1 | |
| Oggi h: 08:23 | Pioggia | 14 | 14 | 100 | 1012 | 14 | S 14.8 | |
| Oggi h: 08:17 | Pioggia | 14 | 14 | 100 | 1012 | 11 | S 13 | |
| Oggi h: 08:15 | Pioggia Foschia | 14 | 14 | 100 | 1012 | 10 | S 11.1 | |
| Oggi h: 08:00 | Pioggia Foschia | 14 | 14 | 100 | 1012 | 6 | S 13 | |
| Oggi h: 07:57 | Pioggia Foschia | 14 | 14 | 100 | 1012 | 8 | S 9.3 | |
| Oggi h: 07:48 | Pioggia Foschia | 14 | 14 | 100 | 1012 | 10 | S 13 | |
| Oggi h: 07:45 | Pioggia Foschia | 14 | 14 | 100 | 1012 | 8 | S 9.3 | |
| Oggi h: 07:43 | Pioggia Foschia | 14 | 14 | 100 | 1012 | 6 | S 13 | |
| Oggi h: 07:41 | Pioggia Foschia | 14 | 14 | 100 | 1012 | 5 | S 11.1 | |
| Oggi h: 07:39 | Pioggia Foschia | 14 | 14 | 100 | 1012 | 2 | S 11.1 | |
| Oggi h: 07:27 | Pioggia Foschia | 14 | 14 | 100 | 1012 | 5 | S 11.1 | |
| Oggi h: 07:15 | Pioggia Foschia | 14 | 14 | 100 | 1012 | 3 | S 9.3 | |
| Oggi h: 07:00 | Pioggia Foschia | 14 | 14 | 100 | 1012 | 2 | S/SE 9.3 | |
| Oggi h: 06:47 | Pioggia Foschia | 14 | 14 | 100 | 1012 | 5 | N 5.5 | |
| Oggi h: 06:28 | Pioggia Foschia | 14 | 14 | 100 | 1012 | 2 | S 11.1 | |
| Oggi h: 06:27 | Pioggia Foschia | 14 | 14 | 100 | 1012 | 2 | S 11.1 | |
| Oggi h: 06:25 | Pioggia Foschia | 14 | 14 | 100 | 1012 | 2 | S 9.3 | |
| Oggi h: 06:22 | Pioggia Foschia | 14 | 13 | 93 | 1012 | 2 | S 9.3 | |
| Oggi h: 06:13 | Pioggia Foschia | 14 | 13 | 93 | 1012 | 2 | S 9.3 | |
| Oggi h: 06:12 | Pioggia Foschia | 14 | 13 | 93 | 1012 | 2 | S 11.1 | |
| Oggi h: 06:10 | Pioggia Foschia | 14 | 13 | 93 | 1012 | 2 | S 11.1 | |
| Oggi h: 06:04 | Pioggia Foschia | 14 | 13 | 93 | 1012 | 2 | S 7.4 | |
| Oggi h: 06:01 | Pioggia Foschia | 14 | 13 | 93 | 1012 | 2 | N 5.5 | |
| Oggi h: 06:00 | Pioggia Foschia | 14 | 13 | 93 | 1012 | 2 | N 5.5 | |
| Oggi h: 05:43 | Pioggia Foschia | 14 | 13 | 93 | 1013 | 2 | S/SO 13 | |
| Oggi h: 05:36 | Pioggia Foschia | 14 | 13 | 93 | 1013 | 2 | S/SO 16.7 | |
| Oggi h: 05:01 | Pioggia Foschia | 14 | 14 | 100 | 1013 | 3 | S 11.1 | |
| Oggi h: 05:00 | Pioggia Foschia | 14 | 14 | 100 | 1013 | 3 | S 14.8 | |
| Oggi h: 04:56 | Pioggia Foschia | 14 | 14 | 100 | 1013 | 3 | S 13 | |
| Oggi h: 04:52 | Pioggia Foschia | 14 | 14 | 100 | 1013 | 2 | S 14.8 | |
| Oggi h: 04:47 | Pioggia Foschia | 14 | 14 | 100 | 1013 | 2 | S 11.1 | |
| Oggi h: 04:26 | Pioggia Foschia | 14 | 14 | 100 | 1013 | 5 | S 18.5 | |
| Oggi h: 04:13 | Pioggia Foschia | 14 | 14 | 100 | 1013 | 2 | S 11.1 | |
| Oggi h: 04:08 | Pioggia Foschia | 14 | 14 | 100 | 1013 | 5 | S 11.1 | |
| Oggi h: 04:02 | Pioggia Foschia | 14 | 14 | 100 | 1013 | 5 | S 14.8 | |
| Oggi h: 04:00 | Pioggia Foschia | 14 | 14 | 100 | 1013 | 2 | S 14.8 | |
| Oggi h: 03:54 | Pioggia Foschia | 14 | 14 | 100 | 1013 | 2 | S 14.8 | |
| Oggi h: 03:41 | Pioggia Foschia | 14 | 14 | 100 | 1013 | 2 | S 14.8 | |
| Oggi h: 03:38 | Pioggia Foschia | 14 | 14 | 100 | 1013 | 2 | S 14.8 | |
| Oggi h: 03:27 | Pioggia Foschia | 14 | 14 | 100 | 1013 | 8 | S 13 | |
| Oggi h: 03:14 | Pioggia Foschia | 14 | 14 | 100 | 1013 | 10 | S/SE 13 | |
| Oggi h: 03:00 | Pioggia Foschia | 14 | 14 | 100 | 1013 | 5 | S 13 | |
| Oggi h: 02:35 | Pioggia Foschia | 14 | 14 | 100 | 1013 | 6 | S/SE 13 | |
| Oggi h: 02:21 | Pioggia Foschia | 14 | 14 | 100 | 1014 | 5 | S/SE 13 | |
| Oggi h: 02:11 | Pioggia Foschia | 14 | 14 | 100 | 1014 | 5 | S/SE 13 | |
| Oggi h: 02:00 | Pioggia Foschia | 14 | 14 | 100 | 1014 | 2 | S/SE 11.1 | |
| Oggi h: 01:59 | Pioggia Foschia | 14 | 14 | 100 | 1014 | 2 | S/SE 11.1 | |
| Oggi h: 01:43 | Pioggia Foschia | 14 | 14 | 100 | 1014 | 2 | S/SE 13 | |
| Oggi h: 01:21 | Pioggia Foschia | 14 | 14 | 100 | 1014 | 8 | S/SE 9.3 | |
| Oggi h: 01:15 | Pioggia | 14 | 14 | 100 | 1014 | 13 | S 11.1 | |
| Oggi h: 01:13 | Pioggia | 14 | 14 | 100 | 1014 | 13 | S/SE 11.1 | |
| Oggi h: 01:03 | Pioggia Foschia | 14 | 14 | 100 | 1014 | 10 | S/SE 11.1 | |
| Oggi h: 01:00 | Pioggia Foschia | 14 | 14 | 100 | 1014 | 6 | S 7.4 | |
| Oggi h: 00:59 | Pioggia Foschia | 14 | 14 | 100 | 1014 | 6 | S 7.4 | |
| Oggi h: 00:39 | Pioggia Foschia | 14 | 14 | 100 | 1014 | 8 | S/SE 11.1 | |
| Oggi h: 00:29 | Pioggia | 14 | 14 | 100 | 1014 | 14 | S 11.1 | |
| Oggi h: 00:22 | Pioggia Foschia | 14 | 14 | 100 | 1014 | 10 | S/SE 13 | |
| Oggi h: 00:07 | Pioggia Foschia | 14 | 14 | 100 | 1014 | 8 | S/SE 13 | |
| Oggi h: 00:00 | Pioggia Foschia | 14 | 14 | 100 | 1014 | 6 | S/SE 11.1 | |
| Ieri h: 23:38 | Pioggia Foschia | 14 | 14 | 100 | 1014 | 8 | S 13 | |
| Ieri h: 23:16 | Pioggia Foschia | 14 | 14 | 100 | 1015 | 10 | S 13 | |
| Ieri h: 23:12 | Pioggia Foschia | 14 | 14 | 100 | 1015 | 10 | S 11.1 | |
| Ieri h: 23:03 | Pioggia Foschia | 14 | 14 | 100 | 1015 | 6 | S/SE 14.8 | |
| Ieri h: 23:00 | Pioggia Foschia | 14 | 14 | 100 | 1015 | 6 | S 14.8 | |
| Ieri h: 22:48 | Pioggia Foschia | 14 | 14 | 100 | 1015 | 6 | S/SE 13 | |
| Ieri h: 22:40 | Pioggia Foschia | 14 | 14 | 100 | 1015 | 5 | S/SE 9.3 | |
| Ieri h: 22:07 | Pioggia Foschia | 14 | 14 | 100 | 1015 | 8 | S 7.4 | |
| Ieri h: 22:00 | Pioggia | 14 | 14 | 100 | 1015 | 14 | S 9.3 | |
| Ieri h: 21:57 | Pioggia Foschia | 14 | 14 | 100 | 1015 | 10 | S 7.4 | |
| Ieri h: 21:40 | Pioggia Foschia | 14 | 14 | 100 | 1015 | 6 | S/SE 7.4 | |
| Ieri h: 21:37 | Foschia | 14 | 14 | 100 | 1015 | 8 | S 7.4 | |
| Ieri h: 21:20 | Coperto | 14 | 14 | 100 | 1015 | 14 | S 7.4 | |
| Ieri h: 21:07 | Coperto | 14 | 14 | 100 | 1015 | 14 | S/SE 7.4 | |
| Ieri h: 21:00 | Pioggia | 14 | 14 | 100 | 1015 | 14 | S/SE 9.3 | |
| Ieri h: 20:38 | Pioggia | 14 | 14 | 100 | 1015 | 14 | S/SE 11.1 | |
| Ieri h: 20:18 | Pioggia | 14 | 14 | 100 | 1015 | 14 | S 9.3 | |
| Ieri h: 20:14 | Pioggia | 14 | 14 | 100 | 1015 | 11 | S 9.3 | |
| Ieri h: 20:08 | Pioggia Foschia | 14 | 14 | 100 | 1015 | 5 | S/SE 13 | |
| Ieri h: 20:00 | Pioggia Foschia | 14 | 14 | 100 | 1015 | 2 | S/SE 11.1 | |
| Ieri h: 19:51 | Pioggia Foschia | 14 | 14 | 100 | 1015 | 2 | S 11.1 | |
| Ieri h: 19:32 | Pioggia Foschia | 14 | 14 | 100 | 1015 | 3 | S/SE 11.1 | |
| Ieri h: 19:24 | Pioggia Foschia | 14 | 14 | 100 | 1015 | 2 | S/SE 11.1 | |
| Ieri h: 19:08 | Pioggia Foschia | 14 | 14 | 100 | 1015 | 3 | S/SE 11.1 | |
| Ieri h: 19:00 | Pioggia Foschia | 14 | 14 | 100 | 1015 | 2 | S/SE 13 | |
| Ieri h: 18:22 | Pioggia Foschia | 14 | 14 | 100 | 1015 | 2 | S 14.8 | |
| Ieri h: 18:20 | Pioggia Foschia | 14 | 14 | 100 | 1015 | 2 | S/SE 13 | |
| Ieri h: 18:10 | Pioggia Foschia | 14 | 14 | 100 | 1015 | 5 | S 13 | |
| Ieri h: 18:00 | Pioggia Foschia | 14 | 14 | 100 | 1015 | 2 | S 13 | |
| Ieri h: 17:54 | Pioggia Foschia | 14 | 14 | 100 | 1015 | 2 | S 13 | |
| Ieri h: 17:48 | Pioggia Foschia | 14 | 14 | 100 | 1015 | 2 | S 11.1 | |
| Ieri h: 17:01 | Pioggia Foschia | 15 | 14 | 93 | 1016 | 2 | S/SE 13 | |
| Ieri h: 17:00 | Pioggia Foschia | 14 | 14 | 100 | 1016 | 2 | S/SE 14.8 | |
| Ieri h: 16:53 | Pioggia Foschia | 15 | 14 | 93 | 1016 | 2 | S/SE 14.8 | |
| Ieri h: 16:50 | Pioggia Foschia | 15 | 14 | 93 | 1016 | 2 | S/SE 14.8 | |
| Ieri h: 16:46 | Pioggia Foschia | 15 | 14 | 93 | 1016 | 6 | S 14.8 | |
| Ieri h: 16:43 | Pioggia Foschia | 15 | 14 | 93 | 1016 | 8 | S/SE 13 | |
| Ieri h: 16:39 | Pioggia Foschia | 15 | 14 | 93 | 1016 | 10 | S 14.8 | |
| Ieri h: 16:00 | Pioggia Foschia | 15 | 14 | 93 | 1016 | 5 | S 13 | |
| Ieri h: 15:09 | Pioggia Foschia | 14 | 14 | 100 | 1016 | 6 | S 14.8 | |
| Ieri h: 15:00 | Pioggia Foschia | 14 | 14 | 100 | 1016 | 6 | S/SE 16.7 | |
| Ieri h: 14:54 | Pioggia Foschia | 14 | 14 | 100 | 1016 | 5 | S 16.7 | |
| Ieri h: 14:35 | Pioggia Foschia | 14 | 14 | 100 | 1016 | 8 | S 14.8 | |
| Ieri h: 14:34 | Pioggia Foschia | 14 | 14 | 100 | 1016 | 10 | S 16.7 | |
| Ieri h: 14:00 | Coperto | 15 | 14 | 93 | 1016 | 14 | S 11.1 | |
| Ieri h: 13:32 | Coperto | 15 | 14 | 93 | 1016 | 14 | S 14.8 | |
| Ieri h: 13:05 | Pioggia Foschia | 14 | 14 | 100 | 1016 | 10 | S 14.8 | |
| Ieri h: 13:00 | Pioggia Foschia | 14 | 14 | 100 | 1016 | 6 | S/SE 14.8 | |
| Ieri h: 12:59 | Pioggia Foschia | 14 | 14 | 100 | 1016 | 5 | S/SE 13 | |
| Ieri h: 12:49 | Pioggia Foschia | 14 | 14 | 100 | 1016 | 5 | S 13 | |
| Ieri h: 12:37 | Pioggia Foschia | 14 | 14 | 100 | 1016 | 5 | S/SE 13 | |
Previsioni Meteo per località vicine a Bella Bella
- Nessuna località trovata



